Location: Iwkowa
(49.8210°N, 20.5761°E)
Time: 07:46:49
(UTC+01:00)

ISS - Pass Details

Date: 24 January 2019
Orbit: 403 x 411 km, 51.6° (Epoch: 21 February)

Event Time Altitude Azimuth Distance (km) Brightness Sun altitude
Rises 17:42:07 0° 208° (SSW) 2,323 0.7 -13.3°
Reaches altitude 10° 17:44:31 10° 191° (SSW) 1,469 -0.7 -13.7°
Maximum altitude 17:47:01 20° 142° (SE) 1,006 -2.1 -14.1°
Enters shadow 17:47:44 19° 123° (ESE) 1,053 -2.1 -14.2°
